DAL2282 KSLC-KJAC

Flight info

Callsign DAL2282
Flight time 0h 36m
Altitude 27000
Route RUGGD3 HOLTR ELLKK MOSSS
Aircraft B38M/M-SDE1FGHILORVWXY/HB1

Departure

Time 2026-05-05 03:17
Airport Salt Lake City International Airport (KSLC)

Arrival

Time 2026-05-05 03:53
Airport Jackson Hole Airport (KJAC)
Time Latitude Longitude Altitude Speed Heading
2026-05-05 02:43 40.78481 -111.99242 4243 ft 0 kts 32°
2026-05-05 03:02 40.78478 -111.99245 4243 ft 2 kts 32°
2026-05-05 03:02 40.78464 -111.99255 4243 ft 2 kts 22°
2026-05-05 03:02 40.78448 -111.99260 4241 ft 2 kts 355°
2026-05-05 03:03 40.78431 -111.99257 4241 ft 2 kts 347°
2026-05-05 03:03 40.78418 -111.99244 4241 ft 2 kts 297°
2026-05-05 03:03 40.78413 -111.99224 4241 ft 2 kts 278°
2026-05-05 03:03 40.78412 -111.99209 4238 ft 2 kts 271°
2026-05-05 03:04 40.78412 -111.99199 4237 ft 0 kts 265°
2026-05-05 03:07 40.78412 -111.99218 4243 ft 6 kts 268°
2026-05-05 03:07 40.78410 -111.99308 4240 ft 11 kts 281°
2026-05-05 03:07 40.78477 -111.99348 4243 ft 12 kts 354°
2026-05-05 03:08 40.78596 -111.99362 4243 ft 22 kts 355°
2026-05-05 03:08 40.78764 -111.99381 4243 ft 25 kts 355°
2026-05-05 03:08 40.78942 -111.99402 4241 ft 26 kts 355°
2026-05-05 03:08 40.79082 -111.99418 4243 ft 18 kts 355°
2026-05-05 03:09 40.79170 -111.99397 4243 ft 11 kts 68°
2026-05-05 03:09 40.79180 -111.99282 4243 ft 17 kts 84°
2026-05-05 03:09 40.79193 -111.99084 4243 ft 25 kts 85°
2026-05-05 03:09 40.79209 -111.98844 4243 ft 27 kts 85°
2026-05-05 03:10 40.79226 -111.98597 4242 ft 27 kts 85°
2026-05-05 03:10 40.79244 -111.98347 4242 ft 28 kts 85°
2026-05-05 03:10 40.79257 -111.98145 4242 ft 8 kts 84°
2026-05-05 03:10 40.79262 -111.98067 4242 ft 9 kts 86°
2026-05-05 03:11 40.79268 -111.97964 4242 ft 14 kts 85°
2026-05-05 03:11 40.79298 -111.97848 4241 ft 13 kts 21°
2026-05-05 03:11 40.79393 -111.97852 4242 ft 14 kts 354°
2026-05-05 03:11 40.79496 -111.97866 4242 ft 16 kts 354°
2026-05-05 03:12 40.79613 -111.97878 4242 ft 17 kts 355°
2026-05-05 03:12 40.79739 -111.97893 4242 ft 19 kts 355°
2026-05-05 03:12 40.79873 -111.97909 4241 ft 20 kts 354°
2026-05-05 03:12 40.80017 -111.97927 4241 ft 21 kts 354°
2026-05-05 03:13 40.80167 -111.97946 4241 ft 22 kts 354°
2026-05-05 03:13 40.80321 -111.97977 4241 ft 23 kts 347°
2026-05-05 03:13 40.80454 -111.98002 4240 ft 19 kts 354°
2026-05-05 03:13 40.80570 -111.98020 4241 ft 14 kts 346°
2026-05-05 03:14 40.80668 -111.98054 4241 ft 15 kts 353°
2026-05-05 03:14 40.80728 -111.98029 4238 ft 9 kts 61°
2026-05-05 03:14 40.80738 -111.97948 4241 ft 10 kts 85°
2026-05-05 03:14 40.80743 -111.97867 4239 ft 5 kts 85°
2026-05-05 03:15 40.80746 -111.97814 4241 ft 9 kts 85°
2026-05-05 03:15 40.80733 -111.97717 4241 ft 6 kts 106°
2026-05-05 03:15 40.80701 -111.97690 4241 ft 5 kts 173°
2026-05-05 03:15 40.80697 -111.97689 4241 ft 0 kts 175°
2026-05-05 03:16 40.80680 -111.97687 4241 ft 15 kts 175°
2026-05-05 03:16 40.80341 -111.97648 4240 ft 81 kts 175°
2026-05-05 03:16 40.79577 -111.97560 4242 ft 137 kts 175°
2026-05-05 03:17 40.78468 -111.97436 4246 ft 181 kts 175°
2026-05-05 03:17 40.77191 -111.97276 4793 ft 190 kts 174°
2026-05-05 03:17 40.75838 -111.97186 5569 ft 194 kts 187°
2026-05-05 03:17 40.74524 -111.97875 6043 ft 214 kts 205°
2026-05-05 03:18 40.73143 -111.98851 6388 ft 236 kts 206°
2026-05-05 03:18 40.71634 -111.99889 6858 ft 253 kts 206°
2026-05-05 03:18 40.70049 -112.01037 7461 ft 265 kts 217°
2026-05-05 03:18 40.68667 -112.02670 8235 ft 269 kts 216°
2026-05-05 03:19 40.65171 -112.03179 8903 ft 270 kts 151°
2026-05-05 03:19 40.63826 -112.01470 9640 ft 273 kts 129°
2026-05-05 03:19 40.62461 -111.99742 10292 ft 274 kts 155°
2026-05-05 03:20 40.60621 -111.99229 11041 ft 274 kts 187°
2026-05-05 03:20 40.58857 -112.00126 11748 ft 277 kts 219°
2026-05-05 03:20 40.57710 -112.02157 12484 ft 283 kts 248°
2026-05-05 03:20 40.57301 -112.04700 13270 ft 288 kts 270°
2026-05-05 03:21 40.57731 -112.07270 14044 ft 292 kts 296°
2026-05-05 03:21 40.59007 -112.09347 14771 ft 298 kts 322°
2026-05-05 03:21 40.60887 -112.10524 15505 ft 303 kts 348°
2026-05-05 03:21 40.62994 -112.10489 16243 ft 308 kts 15°
2026-05-05 03:22 40.64980 -112.09412 16972 ft 312 kts 23°
2026-05-05 03:22 40.67002 -112.08329 17701 ft 315 kts 21°
2026-05-05 03:22 40.69046 -112.07264 18401 ft 318 kts 21°
2026-05-05 03:22 40.71120 -112.06185 18962 ft 322 kts 21°
2026-05-05 03:23 40.73215 -112.05104 19514 ft 326 kts 21°
2026-05-05 03:23 40.75328 -112.04015 20079 ft 330 kts 21°
2026-05-05 03:23 40.77479 -112.02903 20628 ft 334 kts 21°
2026-05-05 03:23 40.79658 -112.01776 21171 ft 338 kts 21°
2026-05-05 03:24 40.81898 -112.00630 21414 ft 353 kts 21°
2026-05-05 03:24 40.84250 -111.99451 21472 ft 372 kts 21°
2026-05-05 03:24 40.86732 -111.98210 21611 ft 387 kts 21°
2026-05-05 03:24 40.89284 -111.96922 21913 ft 397 kts 21°
2026-05-05 03:25 40.91862 -111.95595 22542 ft 399 kts 22°
2026-05-05 03:25 40.94463 -111.94242 23040 ft 403 kts 22°
2026-05-05 03:25 40.97084 -111.92874 23553 ft 406 kts 22°
2026-05-05 03:25 40.99720 -111.91494 24005 ft 409 kts 22°
2026-05-05 03:26 41.02380 -111.90099 24484 ft 412 kts 22°
2026-05-05 03:26 41.05050 -111.88695 24955 ft 414 kts 22°
2026-05-05 03:26 41.07734 -111.87283 25422 ft 417 kts 22°
2026-05-05 03:26 41.10438 -111.85860 25870 ft 419 kts 22°
2026-05-05 03:27 41.13159 -111.84425 26308 ft 422 kts 22°
2026-05-05 03:27 41.15891 -111.82983 26694 ft 426 kts 22°
2026-05-05 03:27 41.18675 -111.81519 26809 ft 435 kts 22°
2026-05-05 03:27 41.21521 -111.80024 26789 ft 446 kts 22°
2026-05-05 03:28 41.24436 -111.78489 26785 ft 456 kts 22°
2026-05-05 03:28 41.27410 -111.76915 26778 ft 464 kts 22°
2026-05-05 03:28 41.30425 -111.75312 26775 ft 468 kts 22°
2026-05-05 03:28 41.33441 -111.73701 26780 ft 467 kts 22°
2026-05-05 03:29 41.36456 -111.72087 26769 ft 467 kts 22°
2026-05-05 03:29 41.39499 -111.70591 26760 ft 466 kts 16°
2026-05-05 03:29 41.42587 -111.69460 26766 ft 466 kts 16°
2026-05-05 03:29 41.45700 -111.68266 26767 ft 465 kts 17°
2026-05-05 03:30 41.48806 -111.67049 26768 ft 465 kts 17°
2026-05-05 03:30 41.51903 -111.65822 26770 ft 464 kts 17°
2026-05-05 03:30 41.54993 -111.64593 26773 ft 463 kts 17°
2026-05-05 03:30 41.58077 -111.63364 26773 ft 462 kts 17°
2026-05-05 03:31 41.61159 -111.62135 26778 ft 462 kts 17°
2026-05-05 03:31 41.64233 -111.60908 26782 ft 461 kts 17°
2026-05-05 03:31 41.67311 -111.59678 26782 ft 461 kts 17°
2026-05-05 03:31 41.70386 -111.58448 26783 ft 461 kts 17°
2026-05-05 03:32 41.73459 -111.57217 26781 ft 461 kts 17°
2026-05-05 03:32 41.76529 -111.55986 26780 ft 460 kts 17°
2026-05-05 03:32 41.79603 -111.54814 26775 ft 460 kts 12°
2026-05-05 03:32 41.82751 -111.54068 26779 ft 460 kts
2026-05-05 03:33 41.85903 -111.53351 26778 ft 459 kts
2026-05-05 03:33 41.89059 -111.52636 26772 ft 459 kts
2026-05-05 03:33 41.92208 -111.51923 26766 ft 459 kts
2026-05-05 03:33 41.95359 -111.51210 26765 ft 459 kts
2026-05-05 03:34 41.98497 -111.50500 26758 ft 458 kts
2026-05-05 03:34 42.01643 -111.49787 26755 ft 458 kts
2026-05-05 03:34 42.04782 -111.49076 26754 ft 458 kts
2026-05-05 03:34 42.07921 -111.48363 26754 ft 457 kts
2026-05-05 03:35 42.11055 -111.47651 26753 ft 457 kts
2026-05-05 03:35 42.14173 -111.46943 26712 ft 447 kts
2026-05-05 03:35 42.17190 -111.46256 26503 ft 434 kts
2026-05-05 03:35 42.20127 -111.45587 26270 ft 422 kts
2026-05-05 03:36 42.22984 -111.44936 26035 ft 411 kts
2026-05-05 03:36 42.25789 -111.44296 25803 ft 407 kts
2026-05-05 03:36 42.28574 -111.43660 25565 ft 405 kts
2026-05-05 03:36 42.31295 -111.42716 25308 ft 404 kts 20°
2026-05-05 03:37 42.33928 -111.41381 25079 ft 404 kts 19°
2026-05-05 03:37 42.36570 -111.40077 24844 ft 403 kts 19°
2026-05-05 03:37 42.39200 -111.38773 24607 ft 402 kts 19°
2026-05-05 03:37 42.41815 -111.37475 24374 ft 401 kts 19°
2026-05-05 03:38 42.44404 -111.36188 24151 ft 400 kts 19°
2026-05-05 03:38 42.47016 -111.34888 23928 ft 399 kts 19°
2026-05-05 03:38 42.49594 -111.33605 23755 ft 390 kts 19°
2026-05-05 03:38 42.52117 -111.32347 23425 ft 385 kts 19°
2026-05-05 03:39 42.54639 -111.31089 22903 ft 385 kts 19°
2026-05-05 03:39 42.57155 -111.29833 22410 ft 384 kts 19°
2026-05-05 03:39 42.59617 -111.28602 21972 ft 382 kts 19°
2026-05-05 03:39 42.62102 -111.27360 21522 ft 379 kts 19°
2026-05-05 03:40 42.64602 -111.26108 21084 ft 377 kts 18°
2026-05-05 03:40 42.67028 -111.24894 20659 ft 375 kts 18°
2026-05-05 03:40 42.69506 -111.23651 20221 ft 374 kts 18°
2026-05-05 03:40 42.71906 -111.22447 19805 ft 372 kts 18°
2026-05-05 03:41 42.74324 -111.21232 19397 ft 370 kts 18°
2026-05-05 03:41 42.76735 -111.20020 18959 ft 369 kts 18°
2026-05-05 03:41 42.79136 -111.18813 18535 ft 368 kts 18°
2026-05-05 03:41 42.81534 -111.17605 18119 ft 366 kts 18°
2026-05-05 03:42 42.83915 -111.16405 17681 ft 364 kts 18°
2026-05-05 03:42 42.86286 -111.15210 17265 ft 361 kts 18°
2026-05-05 03:42 42.88632 -111.14026 16922 ft 357 kts 18°
2026-05-05 03:42 42.90951 -111.12855 16544 ft 354 kts 18°
2026-05-05 03:43 42.93219 -111.11576 16103 ft 353 kts 22°
2026-05-05 03:43 42.95451 -111.10222 15732 ft 350 kts 21°
2026-05-05 03:43 42.97673 -111.08889 15353 ft 347 kts 21°
2026-05-05 03:43 42.99881 -111.07569 14969 ft 345 kts 21°
2026-05-05 03:44 43.02076 -111.06258 14575 ft 343 kts 21°
2026-05-05 03:44 43.04255 -111.04957 14192 ft 341 kts 21°
2026-05-05 03:44 43.06399 -111.03678 13813 ft 340 kts 21°
2026-05-05 03:44 43.08587 -111.02371 13404 ft 338 kts 21°
2026-05-05 03:45 43.10710 -111.01101 12996 ft 336 kts 21°
2026-05-05 03:45 43.12844 -110.99824 12609 ft 334 kts 21°
2026-05-05 03:45 43.14962 -110.98555 12234 ft 331 kts 21°
2026-05-05 03:45 43.17069 -110.97292 11860 ft 329 kts 22°
2026-05-05 03:46 43.19163 -110.96037 11487 ft 328 kts 22°
2026-05-05 03:46 43.21223 -110.94801 11296 ft 318 kts 22°
2026-05-05 03:46 43.23215 -110.93605 11150 ft 307 kts 22°
2026-05-05 03:46 43.25131 -110.92454 11028 ft 296 kts 22°
2026-05-05 03:47 43.26986 -110.91337 10887 ft 286 kts 22°
2026-05-05 03:47 43.28784 -110.90254 10756 ft 278 kts 22°
2026-05-05 03:47 43.30533 -110.89201 10624 ft 271 kts 22°
2026-05-05 03:47 43.32242 -110.88171 10500 ft 265 kts 22°
2026-05-05 03:48 43.33898 -110.87172 10382 ft 256 kts 22°
2026-05-05 03:48 43.35508 -110.86202 10247 ft 249 kts 22°
2026-05-05 03:48 43.37085 -110.85277 10108 ft 245 kts 18°
2026-05-05 03:48 43.38701 -110.84502 9959 ft 241 kts 18°
2026-05-05 03:49 43.40240 -110.83764 9815 ft 233 kts 18°
2026-05-05 03:49 43.41716 -110.83049 9697 ft 216 kts 18°
2026-05-05 03:49 43.43089 -110.82380 9529 ft 205 kts 18°
2026-05-05 03:49 43.44425 -110.81728 9292 ft 203 kts 18°
2026-05-05 03:50 43.45752 -110.81078 9039 ft 201 kts 18°
2026-05-05 03:50 43.47074 -110.80429 8864 ft 202 kts 18°
2026-05-05 03:50 43.48398 -110.79780 8713 ft 202 kts 18°
2026-05-05 03:50 43.49271 -110.79352 8603 ft 203 kts 18°
2026-05-05 03:51 43.50611 -110.78702 8353 ft 202 kts 18°
2026-05-05 03:51 43.51885 -110.78083 8049 ft 185 kts 18°
2026-05-05 03:51 43.53045 -110.77519 7791 ft 171 kts 18°
2026-05-05 03:51 43.54142 -110.76984 7565 ft 164 kts 18°
2026-05-05 03:52 43.55205 -110.76468 7350 ft 160 kts 19°
2026-05-05 03:52 43.56241 -110.75969 7131 ft 156 kts 19°
2026-05-05 03:52 43.57263 -110.75488 6911 ft 154 kts 21°
2026-05-05 03:52 43.58266 -110.74983 6737 ft 152 kts 21°
2026-05-05 03:53 43.59258 -110.74498 6557 ft 152 kts 20°
2026-05-05 03:53 43.60244 -110.74015 6435 ft 142 kts 21°
2026-05-05 03:53 43.60883 -110.73699 6431 ft 54 kts 20°
2026-05-05 03:53 43.61175 -110.73557 6432 ft 41 kts 19°
2026-05-05 03:54 43.61400 -110.73448 6431 ft 17 kts 19°
2026-05-05 03:54 43.61505 -110.73397 6431 ft 11 kts 21°
2026-05-05 03:54 43.61525 -110.73326 6432 ft 8 kts 103°
2026-05-05 03:54 43.61497 -110.73261 6432 ft 8 kts 149°
2026-05-05 03:55 43.61436 -110.73270 6431 ft 11 kts 199°
2026-05-05 03:55 43.61354 -110.73309 6431 ft 13 kts 199°
2026-05-05 03:55 43.61263 -110.73353 6432 ft 14 kts 199°
2026-05-05 03:55 43.61168 -110.73400 6430 ft 15 kts 201°
2026-05-05 03:56 43.61050 -110.73458 6432 ft 22 kts 199°
2026-05-05 03:56 43.60896 -110.73534 6430 ft 24 kts 200°
2026-05-05 03:56 43.60739 -110.73611 6432 ft 24 kts 199°
2026-05-05 03:56 43.60577 -110.73688 6430 ft 21 kts 199°
2026-05-05 03:57 43.60501 -110.73728 6431 ft 8 kts 200°
2026-05-05 03:57 43.60453 -110.73752 6432 ft 7 kts 199°
2026-05-05 03:57 43.60421 -110.73766 6429 ft 2 kts 184°
2026-05-05 03:57 43.60405 -110.73756 6431 ft 4 kts 137°
2026-05-05 03:58 43.60396 -110.73729 6432 ft 2 kts 108°
2026-05-05 03:58 43.60393 -110.73718 6432 ft 0 kts 109°
2026-05-05 03:58 43.60391 -110.73710 6432 ft 1 kts 108°
2026-05-05 03:58 43.60387 -110.73695 6432 ft 1 kts 109°
2026-05-05 03:59 43.60387 -110.73693 6432 ft 0 kts 109°